Regional Weather Roundup
Issued by NWS

Home | Current Version | Previous Version | Graphics & Text | Print | Product List | Glossary On
Versions: 1 2 3 4 5 6 7 8 9 10 11 12 13 14 15 16 17 18 19 20 21 22 23 24 25 26 27 28 29 30 31 32 33 34 35 36 37 38 39 40 41 42 43 44 45 46 47 48
000
ASUS45 KSLC 250410
RWRUT

UTAH REGIONAL WEATHER ROUNDUP
NATIONAL WEATHER SERVICE SALT LAKE CITY UT
900 PM MST SAT JAN 24 2015

UTZ001>011-023>025-250500-

NORTHERN UTAH

CITY           SKY/WX    TMP DP  RH WIND       PRES   REMARKS
BRIGHAM CITY   CLOUDY    33  27  79 N3        30.48F
HILL AFB       CLOUDY    33  22  64 CALM      30.46R
LOGAN          CLOUDY    32  28  85 E3        30.48S
OGDEN          CLOUDY    33  26  75 NW3       30.46S
PROVO AIRPORT  MOCLDY    34  25  69 CALM      30.48R
SALT LAKE CITY CLOUDY    35  28  75 N6        30.48R WCI  30
VERNAL         CLEAR     25  17  72 W7        30.37R WCI  17
WENDOVER       CLOUDY    34  25  69 S3        30.47R
HEBER CITY     CLOUDY    32  25  74 SE5       30.45R WCI  27
WEST JORDAN    CLOUDY    37  25  60 CALM      30.48R

$$

UTZ012>022-026-027-250500-

SOUTHERN/CENTRAL UTAH

CITY           SKY/WX    TMP DP  RH WIND       PRES   REMARKS
BLANDING       CLEAR     31  18  60 N6        30.35F WCI  25
BRYCE CANYON   CLEAR     26  19  74 W9        30.39S WCI  17
CEDAR CITY     CLEAR     33  22  63 N9        30.38R WCI  25
DELTA          CLOUDY    35  27  72 CALM      30.45R
MILFORD        PTCLDY    35  23  61 N13       30.41F WCI  26
MOAB/CYNLANDS  CLEAR     28  19  69 CALM      30.34S
PRICE          CLEAR     32  16  51 VRB3      30.34R
ST GEORGE      CLEAR     50  21  32 CALM      30.29S
KANAB          CLEAR     34  19  55 NE6       30.34R WCI  29

$$

REGIONAL REPORTS     COLORADO/ARIZONA

CITY           SKY/WX    TMP DP  RH WIND       PRES   REMARKS
CRAIG, CO      CLOUDY    27  20  75 CALM      30.35R
GRAND JUNCTION PTCLDY    26  18  71 E3        30.37R
RIFLE          PTCLDY    25  18  74 SE5       30.38R WCI  19
MONTROSE       PTCLDY    23  14  68 SE7       30.38R WCI  15
CORTEZ         CLEAR     26  16  65 S28G71    30.27S WCI  10
PAGE, AZ       NOT AVBL
GRAND CANYON   CLEAR     28  16  60 NE7       30.32S WCI  21
KINGMAN        CLEAR     45  20  36 NE10      30.23S
FLAGSTAFF      CLEAR     37  13  37 E16G22    30.29S WCI  28

$$

REGIONAL REPORTS    NEVADA/IDAHO/WYOMING

CITY           SKY/WX    TMP DP  RH WIND       PRES   REMARKS
LAS VEGAS, NV  CLEAR     56  23  27 SW7       30.21R
ELY            CLEAR     36  23  59 N9        30.42F WCI  29
ELKO           CLEAR     33  27  78 CALM      30.44R
POCATELLO, ID  CLOUDY    31  30  96 E3        30.46R
BURLEY         CLOUDY    35  31  85 CALM      30.42S
EVANSTON, WY   PTCLDY    27  22  81 W6        30.43R WCI  20
ROCK SPRINGS   MOCLDY    32  27  81 SW25      30.32R WCI  19
KEMMERER       CLOUDY    30  30 100 W16       30.38S FOG     WCI  19

$$


USA.gov is the U.S. government's official web portal to all federal, state and local government web resources and services.